Weather History for Fort Myers Airport, FL

Change the Weather History Date:

Thursday, November 1, 2012

  Actual Average Record
Temperature  
Mean Temperature 68 °F -  
Max Temperature 80 °F 83 °F 91 °F (1979)
Min Temperature 57 °F 65 °F 44 °F (1993)
Cooling Degree Days 2    
Growing Degree Days 18 (Base 50)    
Moisture  
Dew Point 59 °F    
Average Humidity 76    
Maximum Humidity 94    
Minimum Humidity 52    
Precipitation  
Precipitation 0.00 in - - ()
Sea Level Pressure  
Sea Level Pressure 30.03 in    
Wind  
Wind Speed 2 mph (West)    
Max Wind Speed 14 mph    
Max Gust Speed 16 mph    
Visibility 10 miles    
Events      
Averages and records for this station are not official NWS values.
T = Trace of Precipitation, MM = Missing Value Source: NWS Daily Summary

Daily Weather History Graph

Daily Weather History Graph

Search for Another Location

Airport:

Trip Planner

Search our weather history database for the weather conditions in past years. The results will help you decide how hot, cold, wet, or windy it might be!

Date:

Astronomy

Nov. 01, 2012 Rise Set
Actual Time 7:36 AM EDT 6:44 PM EDT
Civil Twilight 7:12 AM EDT 7:08 PM EDT
Nautical Twilight 6:45 AM EDT 7:35 PM EDT
Astronomical Twilight 6:18 AM EDT 8:02 PM EDT
Moon 8:51 PM EDT (11/1) 9:56 AM EDT (11/1)
Length of Visible Light 11h 55m
Length of Day
11h 07m
Waning Gibbous, 93% of the Moon is Illuminated
Nov 1
Waning Gibbous
Nov 6
Last Quarter
Nov 13
New
Nov 20
First Quarter
Nov 28
Full

Hourly Weather History & Observations

Time (EDT) Temp. Dew Point Humidity Pressure Visibility Wind Dir Wind Speed Gust Speed Precip Events Conditions
12:53 AM 59.0 °F 55.0 °F 87% 30.06 in 10.0 mi Calm Calm - N/A   Clear
1:53 AM 59.0 °F 55.9 °F 90% 30.05 in 10.0 mi Calm Calm - N/A   Clear
2:53 AM 59.0 °F 55.0 °F 87% 30.04 in 10.0 mi Calm Calm - N/A   Clear
3:53 AM 59.0 °F 55.9 °F 90% 30.03 in 10.0 mi Calm Calm - N/A   Clear
4:53 AM 57.9 °F 55.0 °F 90% 30.03 in 10.0 mi Calm Calm - N/A   Clear
5:53 AM 59.0 °F 55.9 °F 90% 30.03 in 10.0 mi Calm Calm - N/A   Clear
6:53 AM 57.9 °F 55.9 °F 93% 30.03 in 10.0 mi Calm Calm - N/A   Clear
7:53 AM 57.2 °F 55.4 °F 94% 30.04 in 6.0 mi Calm Calm - N/A   Clear
8:53 AM 64.0 °F 62.1 °F 93% 30.06 in 10.0 mi Calm Calm - N/A   Clear
9:53 AM 72.0 °F 62.1 °F 71% 30.06 in 10.0 mi West 4.6 mph - N/A   Clear
10:53 AM 75.9 °F 59.0 °F 56% 30.06 in 10.0 mi West 8.1 mph - N/A   Clear
11:53 AM 78.1 °F 59.0 °F 52% 30.06 in 10.0 mi WSW 13.8 mph - N/A   Partly Cloudy
12:53 PM 77.0 °F 59.0 °F 54% 30.05 in 10.0 mi West 9.2 mph 16.1 mph N/A   Overcast
1:53 PM 77.0 °F 60.1 °F 56% 30.01 in 10.0 mi West 8.1 mph 16.1 mph N/A   Mostly Cloudy
2:53 PM 75.9 °F 61.0 °F 60% 29.99 in 10.0 mi West 9.2 mph - N/A   Overcast
3:53 PM 75.9 °F 60.1 °F 58% 29.99 in 10.0 mi West 9.2 mph - N/A   Overcast
4:53 PM 75.0 °F 60.1 °F 60% 29.99 in 10.0 mi WNW 6.9 mph - N/A   Overcast
5:53 PM 75.0 °F 61.0 °F 62% 29.99 in 10.0 mi West 8.1 mph - N/A   Mostly Cloudy
6:53 PM 72.0 °F 61.0 °F 68% 29.99 in 10.0 mi Calm Calm - N/A   Clear
7:53 PM 70.0 °F 61.0 °F 73% 30.00 in 10.0 mi Calm Calm - N/A   Clear
8:53 PM 68.0 °F 62.1 °F 81% 30.01 in 10.0 mi Calm Calm - N/A   Clear
9:53 PM 66.0 °F 62.1 °F 87% 30.02 in 10.0 mi Calm Calm - N/A   Mostly Cloudy
10:53 PM 66.9 °F 64.0 °F 90% 30.04 in 10.0 mi Calm Calm - N/A   Mostly Cloudy
11:53 PM 64.9 °F 62.1 °F 90% 30.04 in 10.0 mi Calm Calm - N/A   Clear